Location: Yellowknife
(62.4500°N, 114.3500°W)
Time: 12:20:08
(UTC-06:00)

Envisat - Visible Passes

Search period start: 23 March 2019 00:00
Search period end: 02 April 2019 00:00
Orbit: 764 x 766 km, 98.2° (Epoch: 22 March)

Date Brightness Start Highest point End Pass type
(mag) Time Alt. Az. Time Alt. Az. Time Alt. Az.
23 Mar 6.2 22:11:29 10° W 22:13:29 12° WNW 22:15:30 10° NW visible
24 Mar 5.8 21:32:21 10° SW 21:36:05 20° W 21:39:51 10° NW visible
25 Mar 5.0 20:54:18 10° SSW 20:58:52 33° W 21:03:28 10° NNW visible
26 Mar 6.0 21:59:21 10° WSW 22:02:03 14° WNW 22:04:46 10° NW visible
27 Mar 5.6 21:20:40 10° SW 21:24:43 23° W 21:28:47 10° NW visible
29 Mar 5.9 21:47:27 10° WSW 21:50:39 17° W 21:53:51 10° NW visible
30 Mar 5.4 21:09:04 10° SSW 21:13:21 27° W 21:17:40 10° NNW visible
31 Mar 6.2 22:15:02 10° W 22:16:40 11° WNW 22:18:18 10° NW visible
01 Apr 5.8 21:35:39 10° SW 21:39:15 19° W 21:42:52 10° NW visible
